• In Moldova, Republic
  • List of Countries
  • For 7 days
  • Water Temperature
  • Satellite Maps
  • Weather Map
  • Weather Widgets
  • user-avatar
    Login

    Hourly Weather Wien

    Today, 24 July, Monday

    Time Temperature Precipitation Wind Pressure Humidity
    00:00 +21°C° 0.4 mm 1 mps 742 mmHg 79%
    01:00 +20°C° 0 mm 1 mps 742 mmHg 82%
    02:00 +20°C° 0.4 mm 1 mps 742 mmHg 84%
    03:00 +20°C° 0.4 mm 1 mps 741 mmHg 86%
    04:00 +20°C° 0.4 mm 1 mps 741 mmHg 87%
    05:00 +20°C° 0.3 mm 1 mps 741 mmHg 85%
    06:00 +21°C° 0.3 mm 1 mps 740 mmHg 82%
    07:00 +22°C° 0.3 mm 1 mps 740 mmHg 79%
    08:00 +23°C° 0.3 mm 2 mps 739 mmHg 77%
    09:00 +23°C° 0.3 mm 2 mps 739 mmHg 74%
    10:00 +24°C° 0.3 mm 3 mps 738 mmHg 71%
    11:00 +24°C° 0.7 mm 3 mps 738 mmHg 72%
    12:00 +24°C° 0.7 mm 3 mps 737 mmHg 72%
    13:00 +24°C° 0.7 mm 3 mps 737 mmHg 72%
    14:00 +22°C° 0.7 mm 4 mps 737 mmHg 73%
    15:00 +22°C° 0.7 mm 5 mps 736 mmHg 75%
    16:00 +21°C° 0.7 mm 6 mps 736 mmHg 76%
    17:00 +20°C° 0.1 mm 6 mps 736 mmHg 77%
    18:00 +20°C° 0.1 mm 5 mps 736 mmHg 77%
    19:00 +19°C° 0.1 mm 5 mps 736 mmHg 77%
    20:00 +19°C° 0.2 mm 5 mps 736 mmHg 79%
    21:00 +17°C° 0.2 mm 6 mps 736 mmHg 80%
    22:00 +17°C° 0.2 mm 7 mps 736 mmHg 82%
    23:00 +17°C° 0.2 mm 6 mps 736 mmHg 82%

    Tomorrow, 25 July, Tuesday

    Time Temperature Precipitation Wind Pressure Humidity
    00:00 +16°C° 0.2 mm 6 mps 736 mmHg 83%
    01:00 +16°C° 0.2 mm 6 mps 736 mmHg 84%
    02:00 +16°C° 0 mm 6 mps 736 mmHg 81%
    03:00 +16°C° 0 mm 6 mps 736 mmHg 79%
    04:00 +16°C° 0 mm 6 mps 736 mmHg 76%
    05:00 +16°C° 0 mm 7 mps 736 mmHg 74%
    06:00 +16°C° 0 mm 7 mps 736 mmHg 71%
    07:00 +16°C° 0 mm 8 mps 736 mmHg 68%
    08:00 +17°C° 0 mm 8 mps 736 mmHg 63%
    09:00 +20°C° 0 mm 8 mps 736 mmHg 58%
    10:00 +21°C° 0 mm 8 mps 736 mmHg 53%
    11:00 +22°C° 0 mm 8 mps 736 mmHg 50%
    12:00 +23°C° 0 mm 8 mps 736 mmHg 46%
    13:00 +23°C° 0 mm 7 mps 735 mmHg 43%
    14:00 +23°C° 0 mm 7 mps 735 mmHg 43%
    15:00 +24°C° 0 mm 7 mps 735 mmHg 43%
    16:00 +24°C° 0 mm 7 mps 735 mmHg 42%
    17:00 +22°C° 0 mm 6 mps 736 mmHg 48%
    18:00 +21°C° 0 mm 5 mps 736 mmHg 53%
    19:00 +20°C° 0 mm 5 mps 736 mmHg 58%
    20:00 +18°C° 0 mm 4 mps 736 mmHg 63%
    21:00 +17°C° 0 mm 4 mps 736 mmHg 67%
    22:00 +15°C° 0 mm 4 mps 737 mmHg 72%
    23:00 +14°C° 0 mm 4 mps 737 mmHg 74%

    Day after tomorrow, 26 July, Wednesday

    Time Temperature Precipitation Wind Pressure Humidity
    00:00 +14°C° 0 mm 4 mps 737 mmHg 76%
    01:00 +14°C° 0 mm 3 mps 737 mmHg 78%
    02:00 +13°C° 0 mm 3 mps 737 mmHg 79%
    03:00 +13°C° 0 mm 3 mps 737 mmHg 80%
    04:00 +13°C° 0 mm 3 mps 737 mmHg 80%
    05:00 +14°C° 0 mm 4 mps 737 mmHg 73%
    06:00 +17°C° 0 mm 4 mps 737 mmHg 67%
    07:00 +17°C° 0 mm 5 mps 737 mmHg 60%
    08:00 +20°C° 0 mm 5 mps 737 mmHg 55%
    09:00 +21°C° 0 mm 5 mps 736 mmHg 50%
    10:00 +23°C° 0 mm 5 mps 736 mmHg 45%
    11:00 +22°C° 0.4 mm 5 mps 736 mmHg 50%
    12:00 +21°C° 0.4 mm 6 mps 736 mmHg 56%
    13:00 +20°C° 0.4 mm 6 mps 736 mmHg 61%
    14:00 +19°C° 0.6 mm 6 mps 736 mmHg 63%
    15:00 +18°C° 0.6 mm 7 mps 736 mmHg 65%
    16:00 +17°C° 0.6 mm 7 mps 736 mmHg 67%
    17:00 +17°C° 0.2 mm 6 mps 737 mmHg 70%
    18:00 +16°C° 0.2 mm 6 mps 737 mmHg 73%
    19:00 +15°C° 0.2 mm 5 mps 737 mmHg 76%
    20:00 +15°C° 0 mm 5 mps 737 mmHg 77%
    21:00 +15°C° 0 mm 5 mps 738 mmHg 78%
    22:00 +14°C° 0 mm 5 mps 738 mmHg 79%
    23:00 +14°C° 0.3 mm 5 mps 738 mmHg 81%

    27 July, Thursday

    Time Temperature Precipitation Wind Pressure Humidity
    00:00 +14°C° 0.3 mm 4 mps 738 mmHg 83%
    01:00 +14°C° 0.3 mm 4 mps 738 mmHg 85%
    02:00 +14°C° 0.3 mm 4 mps 738 mmHg 85%
    03:00 +14°C° 0.3 mm 4 mps 738 mmHg 86%
    04:00 +14°C° 0.3 mm 4 mps 738 mmHg 86%
    05:00 +14°C° 0.5 mm 4 mps 738 mmHg 86%
    06:00 +15°C° 0.5 mm 5 mps 738 mmHg 86%
    07:00 +15°C° 0.5 mm 5 mps 739 mmHg 86%
    08:00 +16°C° 0.3 mm 5 mps 739 mmHg 85%
    09:00 +16°C° 0.3 mm 5 mps 739 mmHg 84%
    10:00 +16°C° 0.3 mm 5 mps 739 mmHg 83%
    11:00 +17°C° 0.1 mm 6 mps 739 mmHg 76%
    12:00 +19°C° 0.1 mm 6 mps 739 mmHg 69%
    13:00 +20°C° 0.1 mm 6 mps 739 mmHg 62%
    14:00 +21°C° 0 mm 6 mps 739 mmHg 59%
    15:00 +22°C° 0 mm 6 mps 739 mmHg 57%
    16:00 +22°C° 0 mm 6 mps 739 mmHg 54%
    17:00 +21°C° 0.2 mm 5 mps 739 mmHg 61%
    18:00 +20°C° 0.2 mm 5 mps 739 mmHg 68%
    19:00 +19°C° 0.2 mm 5 mps 740 mmHg 75%
    20:00 +18°C° 0.1 mm 4 mps 740 mmHg 77%
    21:00 +17°C° 0.1 mm 4 mps 740 mmHg 79%
    22:00 +17°C° 0.1 mm 3 mps 740 mmHg 81%
    23:00 +17°C° 0.1 mm 3 mps 740 mmHg 82%

    28 July, Friday

    Time Temperature Precipitation Wind Pressure Humidity
    00:00 +17°C° 0.1 mm 3 mps 740 mmHg 83%
    01:00 +17°C° 0.1 mm 3 mps 740 mmHg 84%
    02:00 +16°C° 0 mm 3 mps 740 mmHg 85%
    03:00 +16°C° 0 mm 3 mps 741 mmHg 86%
    04:00 +16°C° 0 mm 2 mps 741 mmHg 87%
    05:00 +17°C° 0 mm 3 mps 741 mmHg 83%
    06:00 +18°C° 0 mm 3 mps 741 mmHg 79%
    07:00 +20°C° 0 mm 3 mps 741 mmHg 75%
    08:00 +21°C° 0.2 mm 4 mps 741 mmHg 69%
    09:00 +23°C° 0.2 mm 4 mps 741 mmHg 63%
    10:00 +26°C° 0.2 mm 5 mps 742 mmHg 57%
    11:00 +26°C° 0.5 mm 5 mps 741 mmHg 55%
    12:00 +27°C° 0.5 mm 5 mps 741 mmHg 53%
    13:00 +27°C° 0.5 mm 5 mps 741 mmHg 51%
    14:00 +27°C° 0.3 mm 5 mps 741 mmHg 53%
    15:00 +26°C° 0.3 mm 5 mps 741 mmHg 54%
    16:00 +26°C° 0.3 mm 5 mps 741 mmHg 55%
    17:00 +25°C° 0.1 mm 5 mps 742 mmHg 59%
    18:00 +23°C° 0.1 mm 4 mps 742 mmHg 63%
    19:00 +22°C° 0.1 mm 4 mps 743 mmHg 67%
    20:00 +21°C° 0 mm 4 mps 743 mmHg 71%
    21:00 +20°C° 0 mm 4 mps 744 mmHg 75%
    22:00 +18°C° 0 mm 3 mps 744 mmHg 79%
    23:00 +18°C° 0 mm 3 mps 744 mmHg 81%

    29 July, Saturday

    Time Temperature Precipitation Wind Pressure Humidity
    00:00 +17°C° 0 mm 3 mps 745 mmHg 82%
    01:00 +17°C° 0 mm 3 mps 745 mmHg 84%
    02:00 +16°C° 0 mm 3 mps 745 mmHg 84%
    03:00 +16°C° 0 mm 3 mps 745 mmHg 85%
    04:00 +14°C° 0 mm 3 mps 745 mmHg 86%
    05:00 +17°C° 0 mm 3 mps 746 mmHg 80%
    06:00 +18°C° 0 mm 3 mps 746 mmHg 74%
    07:00 +19°C° 0 mm 3 mps 746 mmHg 69%
    08:00 +21°C° 0 mm 3 mps 746 mmHg 61%
    09:00 +24°C° 0 mm 2 mps 746 mmHg 54%
    10:00 +25°C° 0 mm 2 mps 746 mmHg 47%
    11:00 +26°C° 0 mm 2 mps 746 mmHg 44%
    12:00 +27°C° 0 mm 2 mps 746 mmHg 41%
    13:00 +28°C° 0 mm 2 mps 745 mmHg 38%
    14:00 +29°C° 0 mm 1 mps 745 mmHg 37%
    15:00 +29°C° 0 mm 1 mps 745 mmHg 37%
    16:00 +29°C° 0 mm 1 mps 745 mmHg 37%
    17:00 +27°C° 0 mm 1 mps 745 mmHg 42%
    18:00 +26°C° 0 mm 1 mps 745 mmHg 48%
    19:00 +24°C° 0 mm 1 mps 745 mmHg 53%
    20:00 +23°C° 0 mm 1 mps 745 mmHg 56%
    21:00 +22°C° 0 mm 1 mps 745 mmHg 60%
    22:00 +21°C° 0 mm 1 mps 745 mmHg 63%
    23:00 +20°C° 0 mm 1 mps 745 mmHg 65%
    Show more